UARR

Details ICAO UARR (URA)
Name URALSK
Region Kazakhstan and Kyrgyzstan
Timezone Asia/Oral (UTC+5.0)
Plans Departing 27
Arriving 28
Stats Elevation 125 ft / 38 m (AMSL)
Location 51.150880° 51.541458°
Runways 1
Magnetic Variation 10.961° E
Sunrise 2018-05-24 00:33:31 UTC / 2018-05-24 05:33:31 Local
Sunset 2018-05-24 16:30:40 UTC / 2018-05-24 21:30:40 Local
Advertisement - Login to hide

Runways

ID Width Length Bearing (true) Bearing (mag) Surface Threshold Offset Overrun Length
04 138 ft / 42 m 7,858 ft / 2,395 m 51.88° 40.92° Concrete 0 ft / 0 m 0 ft / 0 m
22 138 ft / 42 m 7,858 ft / 2,395 m 231.90° 220.94° Concrete 0 ft / 0 m 0 ft / 0 m

Approach Navaids

Runway Type Ident Frequency Range Bearing (true) Bearing (mag) Slope Elevation
22 Localiser IUR 109.70 MHz 18 nm / 33 km 230.24° 219.28° - 125 ft / 38 m (AMSL)
22 Glidescope IUR 109.70 MHz 10 nm / 19 km 231.89° 220.93° 2.40° 125 ft / 38 m (AMSL)

Map

Weather


0- 5 10 15 20 25 30 35+ Temperature / ° C

Clouds and Precipitation
Forecast for 2018-05-24 12:00 UTC. Updated 3 hours ago

Ground ~20,000 ft ~40,000 ft Winds

METAR

UARR 241430Z 16004MPS CAVOK 31/09 Q1015 R22/CLRD70 NOSIG RMK QFE758/1010

TAF

Not found

Frequencies

Tower 119.70 MHz TWR
Warning: Do not use this data for real-world aviation or navigation. No guarantee of current accuracy is given.